History for DABS

Tebessa, Algeria

Daily Weekly Monthly
Daily Summary for Tuesday, August 30, 2016
  Actual: Average: Record:
Temperature
Mean Temperature: 82 °F / 28 °C - :  
Max Temperature: 97 °F / 36 °C 83 °F / 29 °C - ()
Min Temperature: 66 °F / 19 °C 57 °F / 14 °C - ()
Cooling Degree Days 16    
Growing Degree Days 32 (Base 50)    
Moisture
Dew Point 55 °F / 13 °C    
Average Humidity 40    
Maximum Humidity 70    
Minimum Humidity 16    
Precipitation
Precipitation 0.00 in / 0.1 cm 0.04 in / 1.0 cm - ()
Sea Level Pressure
Sea Level Pressure 30.14 in / 1020.53 hPa   
Wind
Wind Speed 3 mph / 5 km/h ()  
Max Wind Speed 21 mph / 33 km/h   
Max Gust Speed -   
Visibility 6.4 miles / 10.4 kilometers   
Events Thunderstorm   

Key: T is trace of precipitation, MM is missing value
Source: Averaged Metar Reports

Graphs

Observations

History Graphs Observations

Obs Go Here...

Features

Weather Apps

WunderRadio

Weather Underground Apps
Check out our wide variety of mobile and setup applications.

Weather Underground Applications

Top of Page

© Copyright 2016
The Weather Company, LLC
Time(CET)TemperatureDew PointHumidity Sea Level Pressure Visibility Wind DirectionWind SpeedGust SpeedPrecipitationEvents Conditions
12:00 AM 78.8 °F / 26.0 °C 42.8 °F / 6.0 °C 28% 30.18 in / 1022 hPa - Calm Calm - N/A   Clear
12:30 AM 78.8 °F / 26.0 °C 42.8 °F / 6.0 °C 28% 30.18 in / 1022 hPa - Calm Calm - N/A   Clear
1:00 AM 78 °F / 25 °C 44 °F / 6 °C 19%  in /  hPa 9 miles / 15 kilometers Calm Calm - -  
1:00 AM 77.0 °F / 25.0 °C 42.8 °F / 6.0 °C 29% 30.18 in / 1022 hPa - Calm Calm - N/A   Clear
1:30 AM 77.0 °F / 25.0 °C 42.8 °F / 6.0 °C 29% 30.18 in / 1022 hPa - Calm Calm - N/A   Clear
2:00 AM 75.2 °F / 24.0 °C 42.8 °F / 6.0 °C 31% 30.18 in / 1022 hPa - Calm Calm - N/A   Clear
2:30 AM 75.2 °F / 24.0 °C 42.8 °F / 6.0 °C 31% 30.18 in / 1022 hPa - Calm Calm - N/A   Clear
3:00 AM 73.4 °F / 23.0 °C 42.8 °F / 6.0 °C 33% 30.18 in / 1022 hPa - Calm Calm - N/A   Clear
3:30 AM 73.4 °F / 23.0 °C 42.8 °F / 6.0 °C 33% 30.18 in / 1022 hPa - Calm Calm - N/A   Clear
4:00 AM 74 °F / 23 °C 49 °F / 9 °C 30%  in /  hPa 9 miles / 15 kilometers Calm Calm - -  
4:00 AM 73.4 °F / 23.0 °C 48.2 °F / 9.0 °C 41% 30.15 in / 1021 hPa - Calm Calm - N/A   Clear
4:30 AM 71.6 °F / 22.0 °C 48.2 °F / 9.0 °C 43% 30.15 in / 1021 hPa - Calm Calm - N/A   Clear
5:00 AM 69.8 °F / 21.0 °C 50.0 °F / 10.0 °C 49% 30.15 in / 1021 hPa - SSE 4.6 mph / 7.4 km/h - N/A   Clear
5:30 AM 68.0 °F / 20.0 °C 50.0 °F / 10.0 °C 52% 30.12 in / 1020 hPa - SSE 4.6 mph / 7.4 km/h - N/A   Clear
6:00 AM 68.0 °F / 20.0 °C 48.2 °F / 9.0 °C 49% 30.12 in / 1020 hPa - Calm Calm - N/A   Clear
6:30 AM 68.0 °F / 20.0 °C 48.2 °F / 9.0 °C 49% 30.12 in / 1020 hPa 6.2 miles / 10.0 kilometers Calm Calm - N/A   Partly Cloudy
7:00 AM 69 °F / 21 °C 51 °F / 10 °C 41%  in /  hPa 12 miles / 20 kilometers Calm Calm - -   Scattered Clouds
7:00 AM 69.8 °F / 21.0 °C 50.0 °F / 10.0 °C 49% 30.12 in / 1020 hPa 6.2 miles / 10.0 kilometers Calm Calm - N/A   Partly Cloudy
7:30 AM 71.6 °F / 22.0 °C 50.0 °F / 10.0 °C 46% 30.12 in / 1020 hPa 6.2 miles / 10.0 kilometers Calm Calm - N/A   Partly Cloudy
8:00 AM 71.6 °F / 22.0 °C 51.8 °F / 11.0 °C 50% 30.12 in / 1020 hPa 6.2 miles / 10.0 kilometers Calm Calm - N/A   Partly Cloudy
8:30 AM 73.4 °F / 23.0 °C 53.6 °F / 12.0 °C 50% 30.18 in / 1022 hPa 6.2 miles / 10.0 kilometers North 16.1 mph / 25.9 km/h - N/A   Scattered Clouds
9:00 AM 80.6 °F / 27.0 °C 57.2 °F / 14.0 °C 45% 30.18 in / 1022 hPa 6.2 miles / 10.0 kilometers West 4.6 mph / 7.4 km/h - N/A   Scattered Clouds
9:30 AM 80.6 °F / 27.0 °C 57.2 °F / 14.0 °C 45% 30.18 in / 1022 hPa 6.2 miles / 10.0 kilometers Calm Calm - N/A   Scattered Clouds
10:00 AM 83 °F / 28 °C 59 °F / 15 °C 33%  in /  hPa 6 miles / 10 kilometers Calm Calm - -   Partly Cloudy
10:00 AM 82.4 °F / 28.0 °C 59.0 °F / 15.0 °C 45% 30.18 in / 1022 hPa 6.2 miles / 10.0 kilometers Calm Calm - N/A   Scattered Clouds
10:30 AM 82.4 °F / 28.0 °C 59.0 °F / 15.0 °C 45% 30.18 in / 1022 hPa 6.2 miles / 10.0 kilometers Calm Calm - N/A   Scattered Clouds
11:00 AM 87.8 °F / 31.0 °C 60.8 °F / 16.0 °C 40% 30.15 in / 1021 hPa 6.2 miles / 10.0 kilometers Calm Calm - N/A   Scattered Clouds
11:30 AM 91.4 °F / 33.0 °C 60.8 °F / 16.0 °C 36% 30.15 in / 1021 hPa 6.2 miles / 10.0 kilometers Calm Calm - N/A   Scattered Clouds
12:00 PM 95.0 °F / 35.0 °C 60.8 °F / 16.0 °C 32% 30.12 in / 1020 hPa 6.2 miles / 10.0 kilometers SSW 4.6 mph / 7.4 km/h - N/A   Partly Cloudy
12:30 PM 95.0 °F / 35.0 °C 60.8 °F / 16.0 °C 32% 30.12 in / 1020 hPa 6.2 miles / 10.0 kilometers NNW 11.5 mph / 18.5 km/h - N/A   Partly Cloudy
1:00 PM 96 °F / 36 °C 54 °F / 12 °C 16%  in /  hPa 9 miles / 15 kilometers WNW 4.6 mph / 7.4 km/h - -   Scattered Clouds
1:00 PM 96.8 °F / 36.0 °C 53.6 °F / 12.0 °C 23% 30.12 in / 1020 hPa 6.2 miles / 10.0 kilometers WNW 4.6 mph / 7.4 km/h - N/A   Partly Cloudy
1:30 PM 96.8 °F / 36.0 °C 53.6 °F / 12.0 °C 23% 30.12 in / 1020 hPa 6.2 miles / 10.0 kilometers West 16.1 mph / 25.9 km/h - N/A   Partly Cloudy
2:00 PM 96.8 °F / 36.0 °C 53.6 °F / 12.0 °C 23% 30.09 in / 1019 hPa 6.2 miles / 10.0 kilometers West 13.8 mph / 22.2 km/h - N/A   Scattered Clouds
2:30 PM 96.8 °F / 36.0 °C 53.6 °F / 12.0 °C 23% 30.09 in / 1019 hPa 5.0 miles / 8.0 kilometers West 13.8 mph / 22.2 km/h - N/A   Scattered Clouds
3:00 PM 93.2 °F / 34.0 °C 57.2 °F / 14.0 °C 30% 30.09 in / 1019 hPa 5.0 miles / 8.0 kilometers West 11.5 mph / 18.5 km/h - N/A Thunderstorm Thunderstorm
3:30 PM 89.6 °F / 32.0 °C 57.2 °F / 14.0 °C 33% 30.09 in / 1019 hPa 5.0 miles / 8.0 kilometers SSE 9.2 mph / 14.8 km/h - N/A Thunderstorm Thunderstorm
4:00 PM 85 °F / 30 °C 63 °F / 17 °C 37%  in /  hPa 5 miles / 8 kilometers WNW 20.7 mph / 33.3 km/h - - Thunderstorm Thunderstorm
4:00 PM 86.0 °F / 30.0 °C 62.6 °F / 17.0 °C 45% 30.09 in / 1019 hPa 5.0 miles / 8.0 kilometers WNW 20.7 mph / 33.3 km/h - N/A   Scattered Clouds
4:30 PM 86.0 °F / 30.0 °C 62.6 °F / 17.0 °C 45% 30.09 in / 1019 hPa 5.0 miles / 8.0 kilometers SSE 18.4 mph / 29.6 km/h - N/A Thunderstorm Thunderstorm
5:00 PM 84.2 °F / 29.0 °C 64.4 °F / 18.0 °C 51% 30.09 in / 1019 hPa 6.2 miles / 10.0 kilometers SSE 11.5 mph / 18.5 km/h - N/A   Scattered Clouds
5:30 PM 82.4 °F / 28.0 °C 64.4 °F / 18.0 °C 54% 30.09 in / 1019 hPa 6.2 miles / 10.0 kilometers East 9.2 mph / 14.8 km/h - N/A   Scattered Clouds
6:00 PM 80.6 °F / 27.0 °C 69.8 °F / 21.0 °C 70% 30.09 in / 1019 hPa 6.2 miles / 10.0 kilometers East 9.2 mph / 14.8 km/h - N/A   Scattered Clouds
6:30 PM 80.6 °F / 27.0 °C 69.8 °F / 21.0 °C 70% 30.09 in / 1019 hPa 6.2 miles / 10.0 kilometers SSE 11.5 mph / 18.5 km/h - N/A   Scattered Clouds
7:00 PM 82 °F / 28 °C 69 °F / 21 °C 57%  in /  hPa 6 miles / 10 kilometers Calm Calm - -   Partly Cloudy
7:00 PM 82.4 °F / 28.0 °C 69.8 °F / 21.0 °C 66% 30.12 in / 1020 hPa 6.2 miles / 10.0 kilometers Calm Calm - N/A   Scattered Clouds
7:30 PM 80.6 °F / 27.0 °C 69.8 °F / 21.0 °C 70% 30.12 in / 1020 hPa 6.2 miles / 10.0 kilometers WSW 11.5 mph / 18.5 km/h - N/A Thunderstorm Light Thunderstorm